[[{"header":{"parameterUnit":"m.s-1","parameterCategory":1,"la1":30.2991,"la2":30.254,"lo1":-89.0895,"lo2":-89.0444,"dy":0.0017,"dx":0.0017,"nx":28,"ny":28,"refTime":"2024-04-21T03:00:00:Z","depth":0,"parameterNumber":2,"parameterNumberName":"U-component_of_WINDS"},"data":[0,0,0,0,0,0,0,0,0,0,0,0,0,0,0,0,0,0,0,0,0,0,0,0,0,0,0,0,0,0,0,0,0,0,0,0,0,0,0,0,0,0,0,0,0,0,0,0,0,0,0,0,0,0,0,0,0,0,-1.0708,-1.0708,0,-1.0721,-1.0721,-1.0721,-1.0702,-1.0701,-1.07,-1.07,-1.0713,-1.0714,-1.0715,0,0,0,0,0,0,0,0,0,0,0,0,0,-1.0666,-1.0666,-1.0708,-1.0708,-1.0708,-1.0721,-1.0721,-1.0721,-1.0702,-1.0701,-1.07,-1.0699,-1.0713,-1.0714,-1.0715,0,0,0,0,0,0,0,0,0,0,0,0,0,-1.0682,-1.0667,-1.0708,-1.07,-1.07,-1.0721,-1.0721,-1.0721,-1.0702,-1.0701,-1.07,-1.0699,-1.0713,-1.0714,-1.0715,-1.0745,0,0,-1.072,-1.0721,0,0,0,0,0,0,0,0,-1.0681,-1.0683,-1.0701,-1.0701,-1.07,-1.0709,-1.0711,-1.0729,-1.0702,-1.0701,-1.07,-1.0699,-1.0713,-1.0714,-1.0719,-1.0746,-1.0746,-1.072,-1.0721,-1.0722,-1.0722,0,0,0,0,0,0,0,-1.068,-1.0683,-1.0713,-1.0701,-1.0701,-1.0696,-1.0697,-1.0715,-1.0712,-1.0701,-1.07,-1.0702,-1.0712,-1.0717,-1.0719,-1.0747,-1.072,-1.0721,-1.0722,-1.0723,-1.0798,-1.0799,0,0,0,0,0,0,-1.068,-1.0682,-1.0713,-1.0714,-1.0688,-1.0697,-1.0699,-1.0707,-1.0712,-1.0712,-1.0702,-1.0701,-1.0715,-1.0717,-1.0719,-1.0754,-1.0722,-1.0723,-1.0724,-1.0797,-1.0798,-1.0799,0,0,0,0,0,0,-1.0679,-1.0683,-1.0712,-1.0697,-1.0701,-1.0699,-1.0709,-1.0708,-1.0713,-1.0713,-1.0713,-1.0708,-1.0715,-1.0717,-1.0739,-1.0754,-1.0724,-1.0725,-1.0795,-1.0797,-1.0798,-1.0823,0,0,0,0,0,0,-1.0678,-1.0682,-1.0694,-1.0698,-1.0702,-1.0732,-1.071,-1.0709,-1.0716,-1.0713,-1.0718,-1.0718,-1.0714,-1.0737,-1.074,-1.0755,-1.0726,-1.0794,-1.0796,-1.0798,-1.0821,-1.0826,-1.0829,0,0,0,0,0,-1.0676,-1.0701,-1.0695,-1.0699,-1.0716,-1.0733,-1.0735,-1.0729,-1.0717,-1.0728,-1.0728,-1.0718,-1.0752,-1.0739,-1.0743,-1.0759,-1.0793,-1.0795,-1.0798,-1.0819,-1.0825,-1.0829,0,0,0,0,0,0,-1.0699,-1.0701,-1.0694,-1.0721,-1.0727,-1.0729,-1.0744,-1.0735,-1.0745,-1.0742,-1.0735,-1.0736,-1.0759,-1.0761,-1.0747,-1.0787,-1.077,-1.0774,-1.0785,-1.079,-1.0794,-1.0793,-1.0728,0,0,0,0,0,-1.0707,-1.0721,-1.0722,-1.0745,-1.0748,-1.0745,-1.0752,-1.0747,-1.0753,-1.0756,-1.0757,-1.0763,-1.0775,-1.0783,-1.0794,-1.0821,-1.0822,-1.0834,-1.0838,-1.0842,-1.0845,-1.0858,-1.0864,-1.0807,-1.0807,-1.0807,0,0,-1.0724,-1.0727,-1.0736,-1.0749,-1.0753,-1.0767,-1.0748,-1.0763,-1.0773,-1.0758,-1.0778,-1.0779,-1.0785,-1.081,-1.0821,-1.0812,-1.086,-1.0845,-1.0848,-1.0849,-1.0862,-1.0867,-1.0872,-1.0809,-1.0808,-1.0808,0,0,-1.0762,-1.0766,-1.0785,-1.0789,-1.0795,-1.0793,-1.0797,-1.0801,-1.0801,-1.0821,-1.081,-1.0822,-1.0842,-1.0847,-1.0852,-1.089,-1.0881,-1.0894,-1.0915,-1.0929,-1.0933,-1.0937,-1.095,-1.0955,-1.0897,-1.0897,-1.0897,0,-1.0782,-1.0802,-1.0796,-1.0812,-1.0818,-1.0804,-1.0823,-1.0828,-1.0837,-1.0842,-1.0832,-1.0857,-1.086,-1.0885,-1.0894,-1.0899,-1.0903,-1.0893,-1.0933,-1.0937,-1.0941,-1.0953,-1.0958,-1.0898,-1.0898,-1.0898,-1.0898,0,-1.0827,-1.0841,-1.0856,-1.0864,-1.0872,-1.089,-1.0885,-1.0894,-1.0888,-1.0887,-1.0907,-1.091,-1.0921,-1.0927,-1.0922,-1.0951,-1.0945,-1.0935,-1.0917,-1.0948,-1.0959,-1.0964,-1.09,-1.09,-1.0899,-1.0899,0,0,-1.088,-1.0884,-1.0889,-1.0893,-1.0898,-1.0909,-1.0925,-1.0936,-1.0943,-1.0949,-1.0963,-1.098,-1.097,-1.0976,-1.0971,-1.0983,-1.1012,-1.0971,-1.0971,-1.0978,-1.1043,-1.1051,-1.1056,-1.1006,-1.1007,-1.1007,-1.1043,0,-1.0917,-1.0945,-1.0939,-1.0967,-1.098,-1.0967,-1.0981,-1.0985,-1.0985,-1.0995,-1.0994,-1.1006,-1.0992,-1.0995,-1.1007,-1.1006,-1.1025,-1.1003,-1.1018,-1.1018,-1.1016,-1.1063,-1.1071,-1.1104,-1.1047,-1.1048,-1.1048,0,-1.0964,-1.0972,-1.1001,-1.1003,-1.1008,-1.1021,-1.1029,-1.104,-1.1044,-1.1043,-1.1048,-1.1041,-1.1057,-1.1039,-1.1061,-1.1047,-1.1052,-1.1053,-1.1054,-1.1054,-1.1035,-1.1064,-1.1114,-1.1119,-1.1055,-1.1055,-1.1054,0,-1.0998,-1.1016,-1.1036,-1.1039,-1.1043,-1.1052,-1.1054,-1.1057,-1.1063,-1.1071,-1.1075,-1.1084,-1.1089,-1.1096,-1.1091,-1.1079,-1.1113,-1.1096,-1.1112,-1.1112,-1.112,-1.1119,-1.1171,-1.1124,-1.1124,-1.1124,-1.1124,0,-1.104,-1.1058,-1.1051,-1.1063,-1.1083,-1.1076,-1.1095,-1.1096,-1.1099,-1.111,-1.11,-1.1111,-1.1103,-1.1114,-1.111,-1.1128,-1.113,-1.1129,-1.1128,-1.113,-1.113,-1.1133,-1.1131,-1.1125,-1.1125,-1.1125,-1.1125,0,-1.1082,-1.1079,-1.1099,-1.11,-1.11,-1.1115,-1.1116,-1.1126,-1.1124,-1.1139,-1.1142,-1.1139,-1.115,-1.1146,-1.1159,-1.1156,-1.1179,-1.1175,-1.1177,-1.1176,-1.1192,-1.119,-1.1247,-1.1254,-1.1203,-1.1204,-1.1204,0,-1.1109,-1.1123,-1.1125,-1.1132,-1.1134,-1.1145,-1.1151,-1.1145,-1.1151,-1.1157,-1.1167,-1.1177,-1.1185,-1.1204,-1.1203,-1.1212,-1.1208,-1.1227,-1.1209,-1.121,-1.1207,-1.1206,-1.1207,-1.1231,-1.1231,-1.1232,-1.1232,0,-1.1157,-1.1154,-1.1163,-1.1171,-1.1179,-1.1185,-1.119,-1.1197,-1.119,-1.1198,-1.1209,-1.1215,-1.1228,-1.1238,-1.1246,-1.1247,-1.1239,-1.1238,-1.1242,-1.1244,-1.1244,-1.1244,-1.1186,-1.1236,-1.1236,-1.1236,-1.1235,-1.1235,-1.1191,-1.1202,-1.1205,-1.1216,-1.1219,-1.1224,-1.1234,-1.1233,-1.1242,-1.1251,-1.1247,-1.126,-1.1263,-1.1273,-1.1275,-1.1285,-1.1278,-1.1284,-1.1285,-1.1287,-1.1289,-1.1243,-1.1287,-1.1287,-1.1286,-1.1286,-1.1286,0,-1.1238,-1.1239,-1.1248,-1.1256,-1.1264,-1.1254,-1.126,-1.1267,-1.1278,-1.1282,-1.129,-1.1302,-1.1312,-1.1311,-1.132,-1.1328,-1.1324,-1.1331,-1.133,-1.133,-1.1295,-1.129,-1.1334,-1.1334,-1.1334,-1.1334,-1.1334,-1.1334,-1.1263,-1.1281,-1.1278,-1.1297,-1.1298,-1.131,-1.1314,-1.1318,-1.1321,-1.1335,-1.1343,-1.1343,-1.1344,-1.1353,-1.1361,-1.1361,-1.1364,-1.1372,-1.137,-1.1337,-1.1333,-1.1328,-1.1324,-1.1373,-1.1373,-1.1404,-1.1404,-1.1404]},{"header":{"parameterUnit":"m.s-1","parameterCategory":1,"la1":30.2991,"la2":30.254,"lo1":-89.0895,"lo2":-89.0444,"dy":0.0017,"dx":0.0017,"nx":28,"ny":28,"refTime":"2024-04-21T03:00:00:Z","depth":0,"parameterNumber":3,"parameterNumberName":"V-component_of_WINDS"},"data":[0,0,0,0,0,0,0,0,0,0,0,0,0,0,0,0,0,0,0,0,0,0,0,0,0,0,0,0,0,0,0,0,0,0,0,0,0,0,0,0,0,0,0,0,0,0,0,0,0,0,0,0,0,0,0,0,0,0,-3.5429,-3.543,0,-3.5491,-3.5492,-3.5492,-3.548,-3.5479,-3.5477,-3.5476,-3.5535,-3.5538,-3.554,0,0,0,0,0,0,0,0,0,0,0,0,0,-3.5296,-3.5299,-3.5429,-3.543,-3.5431,-3.5491,-3.5492,-3.5493,-3.548,-3.5479,-3.5477,-3.5476,-3.5534,-3.5537,-3.554,0,0,0,0,0,0,0,0,0,0,0,0,0,-3.5355,-3.5299,-3.5429,-3.5432,-3.5433,-3.5491,-3.5492,-3.5493,-3.548,-3.5478,-3.5477,-3.5475,-3.5533,-3.5537,-3.5541,-3.5599,0,0,-3.5553,-3.5554,0,0,0,0,0,0,0,0,-3.5352,-3.536,-3.5431,-3.5432,-3.5433,-3.5476,-3.5466,-3.5528,-3.5481,-3.5462,-3.5476,-3.5474,-3.5516,-3.5522,-3.5537,-3.5601,-3.5604,-3.5553,-3.5555,-3.5557,-3.5558,0,0,0,0,0,0,0,-3.5348,-3.5358,-3.5454,-3.5432,-3.5433,-3.5429,-3.5435,-3.5478,-3.5498,-3.5464,-3.5463,-3.547,-3.5517,-3.5533,-3.5538,-3.5605,-3.5553,-3.5556,-3.5559,-3.556,-3.5719,-3.5721,0,0,0,0,0,0,-3.5344,-3.5354,-3.5452,-3.5455,-3.5388,-3.5432,-3.544,-3.5464,-3.5497,-3.5501,-3.5472,-3.547,-3.5527,-3.5533,-3.554,-3.5609,-3.5557,-3.5561,-3.5563,-3.5717,-3.5719,-3.5721,0,0,0,0,0,0,-3.5341,-3.5352,-3.5449,-3.5405,-3.5417,-3.5436,-3.5464,-3.5466,-3.5482,-3.5504,-3.5507,-3.5485,-3.5526,-3.5535,-3.5584,-3.5611,-3.5563,-3.5566,-3.5715,-3.5718,-3.572,-3.5748,0,0,0,0,0,0,-3.5337,-3.5351,-3.5375,-3.5405,-3.5419,-3.5494,-3.5465,-3.5468,-3.549,-3.5487,-3.5517,-3.552,-3.5525,-3.5579,-3.5588,-3.5616,-3.5569,-3.5712,-3.5716,-3.5719,-3.5745,-3.5752,-3.5757,0,0,0,0,0,-3.5332,-3.5379,-3.5376,-3.5388,-3.5449,-3.5495,-3.5503,-3.5509,-3.5492,-3.5514,-3.5528,-3.5519,-3.5607,-3.5584,-3.5594,-3.5623,-3.5711,-3.5715,-3.5719,-3.5742,-3.575,-3.5757,0,0,0,0,0,0,-3.5349,-3.5383,-3.538,-3.5439,-3.5464,-3.5493,-3.5522,-3.5518,-3.5548,-3.5544,-3.555,-3.5556,-3.5607,-3.562,-3.5594,-3.5681,-3.5656,-3.5663,-3.567,-3.5678,-3.5684,-3.5679,-3.5572,0,0,0,0,0,-3.536,-3.5397,-3.5424,-3.5473,-3.5486,-3.5502,-3.5522,-3.5525,-3.5551,-3.5562,-3.5579,-3.5604,-3.5637,-3.5658,-3.569,-3.5747,-3.5753,-3.5773,-3.5779,-3.5784,-3.5789,-3.5819,-3.5828,-3.5735,-3.5735,-3.5735,0,0,-3.5382,-3.5405,-3.5428,-3.5477,-3.5497,-3.5533,-3.5511,-3.555,-3.5577,-3.5567,-3.5615,-3.5629,-3.5657,-3.5711,-3.5735,-3.5723,-3.5816,-3.5789,-3.5793,-3.5795,-3.5825,-3.5833,-3.5841,-3.5738,-3.5737,-3.5737,0,0,-3.5441,-3.5463,-3.5506,-3.5527,-3.5559,-3.5569,-3.5579,-3.5609,-3.5618,-3.5667,-3.5661,-3.5692,-3.5749,-3.5769,-3.5786,-3.5853,-3.5845,-3.5863,-3.5895,-3.5925,-3.5932,-3.5938,-3.5961,-3.5969,-3.5868,-3.5869,-3.5869,0,-3.5464,-3.552,-3.5528,-3.5568,-3.5589,-3.5584,-3.5627,-3.5647,-3.5686,-3.57,-3.5687,-3.5759,-3.5777,-3.5835,-3.5851,-3.5866,-3.5877,-3.5859,-3.593,-3.5937,-3.5943,-3.5965,-3.5973,-3.587,-3.587,-3.587,-3.587,0,-3.5546,-3.5585,-3.5615,-3.5655,-3.568,-3.5721,-3.5734,-3.5758,-3.5759,-3.577,-3.582,-3.5842,-3.5877,-3.5892,-3.5892,-3.595,-3.5941,-3.5929,-3.5904,-3.5954,-3.5974,-3.5983,-3.5873,-3.5872,-3.5872,-3.5871,0,0,-3.5616,-3.5661,-3.5672,-3.569,-3.5725,-3.5754,-3.5794,-3.5831,-3.5851,-3.5878,-3.5911,-3.596,-3.595,-3.597,-3.5972,-3.5999,-3.6049,-3.5983,-3.5984,-3.5994,-3.6112,-3.612,-3.613,-3.6045,-3.6047,-3.6048,-3.6109,0,-3.5676,-3.575,-3.5758,-3.5823,-3.5858,-3.5854,-3.5889,-3.5914,-3.5925,-3.5956,-3.5968,-3.6002,-3.5986,-3.5998,-3.6024,-3.6037,-3.6073,-3.6033,-3.6074,-3.6075,-3.6066,-3.6141,-3.6149,-3.6206,-3.6118,-3.6119,-3.612,0,-3.5757,-3.5789,-3.5857,-3.5887,-3.5902,-3.5934,-3.5968,-3.5998,-3.6025,-3.6031,-3.6054,-3.6054,-3.6094,-3.6069,-3.6124,-3.6097,-3.6114,-3.6123,-3.6126,-3.6128,-3.61,-3.6144,-3.6224,-3.6232,-3.6133,-3.6132,-3.6131,0,-3.58,-3.5859,-3.5908,-3.5923,-3.596,-3.5982,-3.5998,-3.6024,-3.6045,-3.6075,-3.6088,-3.6122,-3.6139,-3.6165,-3.6173,-3.6154,-3.6227,-3.6202,-3.6232,-3.6232,-3.6246,-3.6245,-3.6329,-3.626,-3.626,-3.6259,-3.6259,0,-3.5866,-3.5908,-3.5927,-3.5957,-3.6003,-3.6013,-3.6057,-3.6072,-3.6095,-3.6126,-3.6125,-3.6154,-3.6164,-3.6194,-3.6201,-3.6245,-3.6253,-3.6258,-3.6259,-3.6258,-3.6257,-3.6268,-3.6264,-3.6262,-3.6261,-3.6261,-3.626,0,-3.5921,-3.5936,-3.5988,-3.6019,-3.6028,-3.6061,-3.6086,-3.6114,-3.6126,-3.6166,-3.6175,-3.6193,-3.6229,-3.624,-3.6283,-3.6287,-3.6338,-3.6336,-3.6329,-3.6329,-3.6357,-3.6354,-3.6451,-3.6463,-3.6387,-3.6387,-3.6388,0,-3.5961,-3.5994,-3.6028,-3.605,-3.6067,-3.6102,-3.6124,-3.6135,-3.6158,-3.6191,-3.6215,-3.6251,-3.628,-3.6337,-3.6353,-3.6385,-3.6383,-3.6415,-3.6388,-3.6385,-3.6382,-3.638,-3.6382,-3.6419,-3.642,-3.6421,-3.6421,0,-3.6032,-3.6038,-3.6071,-3.6106,-3.6133,-3.6162,-3.6189,-3.6206,-3.622,-3.6246,-3.6283,-3.6306,-3.635,-3.6385,-3.6418,-3.6433,-3.6429,-3.643,-3.6438,-3.6436,-3.6431,-3.6433,-3.6342,-3.6427,-3.6427,-3.6426,-3.6426,-3.6426,-3.608,-3.6108,-3.6137,-3.6173,-3.6195,-3.6221,-3.6249,-3.6265,-3.6297,-3.6334,-3.6338,-3.6378,-3.6404,-3.6449,-3.6465,-3.6496,-3.6486,-3.6499,-3.6502,-3.6504,-3.6506,-3.6427,-3.6502,-3.6502,-3.6502,-3.6501,-3.6501,0,-3.6148,-3.6167,-3.6201,-3.624,-3.6269,-3.6265,-3.6294,-3.6318,-3.6354,-3.6379,-3.6408,-3.6451,-3.6485,-3.6504,-3.6538,-3.6558,-3.6557,-3.6567,-3.6565,-3.6568,-3.6513,-3.6502,-3.6567,-3.6567,-3.6567,-3.6567,-3.6567,-3.6567,-3.6188,-3.6235,-3.6245,-3.6302,-3.6321,-3.6361,-3.6378,-3.6401,-3.6422,-3.647,-3.6499,-3.6512,-3.6534,-3.657,-3.6601,-3.6605,-3.6617,-3.6627,-3.6631,-3.6579,-3.6572,-3.6565,-3.6555,-3.663,-3.663,-3.6683,-3.6683,-3.6684]}]]